Location: Davayat
(45.9471°N, 3.1105°E)
Time: 17:41:43
(UTC+00:00)

Cosmos 1602 - Pass Details

Date: 01 December 2020
Orbit: 512 x 534 km, 82.5° (Epoch: 23 January)

Event Time Altitude Azimuth Distance (km) Brightness Sun altitude
Rises 17:39:01 0° 348° (NNW) 2,688 7.3 -15.9°
Reaches altitude 10° 17:41:12 10° 346° (NNW) 1,790 6.4 -16.3°
Maximum altitude 17:45:05 67° 265° (W) 578 4.1 -17.0°
Drops below altitude 10° 17:48:56 10° 182° (S) 1,761 6.6 -17.6°
Sets 17:51:03 0° 179° (S) 2,641 7.5 -18.0°
